When you browse on this site, cookies collect data to enhance your experience and personalize the content and advertising you see.
Visit our Privacy Policy to learn more. By continuing to use the site, you agree to this use of cookies and data.
  • In Hungary
  • List of Countries
  • For 7 days
  • Water Temperature
  • Weather Map
  • News
  • Weather Widgets
  • user-avatar
    Login

    Hourly Weather Vardugino

    Today, 20 January, Monday

    Time Temperature Precipitation Wind Pressure Humidity
    00:00 -1°C° 0 mm 4 mps 747 mmHg 91%
    01:00 -1°C° 0 mm 4 mps 748 mmHg 90%
    02:00 -1°C° 0 mm 4 mps 748 mmHg 88%
    03:00 -1°C° 0 mm 4 mps 747 mmHg 89%
    04:00 -1°C° 0 mm 5 mps 747 mmHg 89%
    05:00 -1°C° 0 mm 5 mps 747 mmHg 90%
    06:00 -1°C° 0 mm 5 mps 747 mmHg 89%
    07:00 -1°C° 0 mm 5 mps 747 mmHg 89%
    08:00 -1°C° 0 mm 4 mps 747 mmHg 88%
    09:00 -1°C° 0 mm 5 mps 747 mmHg 87%
    10:00 0°C° 0 mm 5 mps 747 mmHg 86%
    11:00 0°C° 0 mm 5 mps 747 mmHg 84%
    12:00 0°C° 0 mm 5 mps 747 mmHg 86%
    13:00 -1°C° 0 mm 5 mps 747 mmHg 88%
    14:00 -1°C° 0 mm 5 mps 747 mmHg 90%
    15:00 -1°C° 0 mm 5 mps 747 mmHg 89%
    16:00 -1°C° 0 mm 5 mps 747 mmHg 88%
    17:00 -1°C° 0 mm 4 mps 746 mmHg 87%
    18:00 -1°C° 0 mm 5 mps 746 mmHg 85%
    19:00 -1°C° 0 mm 5 mps 746 mmHg 83%
    20:00 -2°C° 0 mm 5 mps 746 mmHg 82%
    21:00 -2°C° 0 mm 5 mps 745 mmHg 82%
    22:00 -2°C° 0 mm 5 mps 744 mmHg 82%
    23:00 -2°C° 0 mm 5 mps 744 mmHg 82%

    Tomorrow, 21 January, Tuesday

    Time Temperature Precipitation Wind Pressure Humidity
    00:00 -2°C° 0 mm 5 mps 743 mmHg 83%
    01:00 -2°C° 0 mm 5 mps 743 mmHg 83%
    02:00 -2°C° 0 mm 5 mps 742 mmHg 84%
    03:00 -3°C° 0 mm 6 mps 741 mmHg 86%
    04:00 -3°C° 0 mm 6 mps 740 mmHg 87%
    05:00 -2°C° 0 mm 6 mps 739 mmHg 89%
    06:00 -2°C° 0 mm 6 mps 738 mmHg 89%
    07:00 -1°C° 0 mm 6 mps 737 mmHg 88%
    08:00 -1°C° 0 mm 6 mps 737 mmHg 88%
    09:00 +1°C° 0 mm 6 mps 736 mmHg 88%
    10:00 +2°C° 0 mm 6 mps 736 mmHg 88%
    11:00 +2°C° 0 mm 6 mps 735 mmHg 88%
    12:00 +2°C° 0 mm 6 mps 735 mmHg 89%
    13:00 +3°C° 0 mm 6 mps 734 mmHg 89%
    14:00 +3°C° 0 mm 6 mps 734 mmHg 90%
    15:00 +3°C° 0.5 mm 5 mps 733 mmHg 91%
    16:00 +3°C° 0.5 mm 5 mps 732 mmHg 92%
    17:00 +3°C° 0.5 mm 5 mps 731 mmHg 93%
    18:00 +3°C° 0.5 mm 5 mps 731 mmHg 90%
    19:00 +3°C° 0.5 mm 5 mps 731 mmHg 88%
    20:00 +3°C° 0.5 mm 6 mps 731 mmHg 86%
    21:00 +2°C° 0 mm 6 mps 731 mmHg 82%
    22:00 +1°C° 0 mm 6 mps 731 mmHg 79%
    23:00 -2°C° 0 mm 6 mps 731 mmHg 75%

    Day after tomorrow, 22 January, Wednesday

    Time Temperature Precipitation Wind Pressure Humidity
    00:00 -2°C° 0 mm 6 mps 731 mmHg 75%
    01:00 -3°C° 0 mm 6 mps 731 mmHg 75%
    02:00 -4°C° 0 mm 5 mps 731 mmHg 74%
    03:00 -4°C° 0 mm 5 mps 731 mmHg 76%
    04:00 -4°C° 0 mm 5 mps 730 mmHg 77%
    05:00 -4°C° 0 mm 5 mps 729 mmHg 78%
    06:00 -4°C° 0 mm 5 mps 729 mmHg 79%
    07:00 -4°C° 0 mm 5 mps 729 mmHg 79%
    08:00 -4°C° 0 mm 5 mps 728 mmHg 79%
    09:00 -4°C° 0.1 mm 5 mps 728 mmHg 77%
    10:00 -3°C° 0.1 mm 6 mps 728 mmHg 75%
    11:00 -3°C° 0.1 mm 6 mps 727 mmHg 73%
    12:00 -3°C° 0.2 mm 6 mps 727 mmHg 71%
    13:00 -2°C° 0.2 mm 5 mps 727 mmHg 69%
    14:00 -2°C° 0.2 mm 5 mps 727 mmHg 67%
    15:00 -4°C° 0 mm 5 mps 727 mmHg 68%
    16:00 -4°C° 0 mm 5 mps 727 mmHg 70%
    17:00 -5°C° 0 mm 5 mps 727 mmHg 72%
    18:00 -5°C° 0 mm 5 mps 727 mmHg 75%
    19:00 -5°C° 0 mm 5 mps 728 mmHg 78%
    20:00 -5°C° 0 mm 5 mps 728 mmHg 81%
    21:00 -6°C° 0 mm 6 mps 728 mmHg 78%
    22:00 -6°C° 0 mm 6 mps 729 mmHg 75%
    23:00 -6°C° 0 mm 6 mps 729 mmHg 71%

    23 January, Thursday

    Time Temperature Precipitation Wind Pressure Humidity
    00:00 -8°C° 0 mm 6 mps 730 mmHg 71%
    01:00 -8°C° 0 mm 6 mps 731 mmHg 71%
    02:00 -9°C° 0 mm 6 mps 731 mmHg 71%
    03:00 -9°C° 0 mm 6 mps 732 mmHg 69%
    04:00 -9°C° 0 mm 6 mps 732 mmHg 68%
    05:00 -9°C° 0 mm 7 mps 733 mmHg 66%
    06:00 -9°C° 0 mm 6 mps 733 mmHg 63%
    07:00 -9°C° 0 mm 6 mps 734 mmHg 60%
    08:00 -9°C° 0 mm 6 mps 735 mmHg 57%
    09:00 -9°C° 0 mm 6 mps 735 mmHg 55%
    10:00 -9°C° 0 mm 7 mps 736 mmHg 54%
    11:00 -8°C° 0 mm 7 mps 736 mmHg 53%
    12:00 -8°C° 0 mm 6 mps 737 mmHg 52%
    13:00 -8°C° 0 mm 6 mps 737 mmHg 52%
    14:00 -8°C° 0 mm 6 mps 738 mmHg 52%
    15:00 -8°C° 0 mm 5 mps 738 mmHg 54%
    16:00 -8°C° 0 mm 4 mps 738 mmHg 56%
    17:00 -8°C° 0 mm 3 mps 739 mmHg 58%
    18:00 -7°C° 0 mm 2 mps 739 mmHg 61%
    19:00 -7°C° 0 mm 2 mps 739 mmHg 64%
    20:00 -7°C° 0 mm 2 mps 739 mmHg 66%
    21:00 -6°C° 0 mm 2 mps 738 mmHg 68%
    22:00 -7°C° 0 mm 3 mps 738 mmHg 71%
    23:00 -6°C° 0 mm 3 mps 738 mmHg 73%

    24 January, Friday

    Time Temperature Precipitation Wind Pressure Humidity
    00:00 -7°C° 0.1 mm 4 mps 736 mmHg 79%
    01:00 -6°C° 0.1 mm 5 mps 735 mmHg 85%
    02:00 -6°C° 0.1 mm 5 mps 734 mmHg 91%
    03:00 -6°C° 0.3 mm 6 mps 733 mmHg 92%
    04:00 -5°C° 0.3 mm 6 mps 732 mmHg 92%
    05:00 -5°C° 0.3 mm 6 mps 731 mmHg 92%
    06:00 -4°C° 0.2 mm 6 mps 731 mmHg 93%
    07:00 -2°C° 0.2 mm 5 mps 730 mmHg 94%
    08:00 -1°C° 0.2 mm 5 mps 730 mmHg 95%
    09:00 -1°C° 0 mm 5 mps 730 mmHg 90%
    10:00 -1°C° 0 mm 6 mps 730 mmHg 84%
    11:00 +1°C° 0 mm 6 mps 730 mmHg 79%
    12:00 +1°C° 0 mm 6 mps 730 mmHg 77%
    13:00 0°C° 0 mm 5 mps 731 mmHg 75%
    14:00 0°C° 0 mm 4 mps 731 mmHg 73%
    15:00 -1°C° 0 mm 4 mps 731 mmHg 78%
    16:00 -2°C° 0 mm 4 mps 732 mmHg 83%
    17:00 -2°C° 0 mm 3 mps 732 mmHg 87%
    18:00 -2°C° 0 mm 3 mps 732 mmHg 89%
    19:00 -2°C° 0 mm 3 mps 733 mmHg 91%
    20:00 -2°C° 0 mm 3 mps 733 mmHg 92%
    21:00 -2°C° 0 mm 3 mps 733 mmHg 93%
    22:00 -2°C° 0 mm 2 mps 733 mmHg 94%
    23:00 -2°C° 0 mm 2 mps 733 mmHg 94%

    25 January, Saturday

    Time Temperature Precipitation Wind Pressure Humidity
    00:00 -2°C° 0 mm 2 mps 733 mmHg 95%
    01:00 -2°C° 0 mm 2 mps 732 mmHg 95%
    02:00 -2°C° 0 mm 2 mps 732 mmHg 96%
    03:00 -1°C° 0.3 mm 2 mps 732 mmHg 96%
    04:00 -1°C° 0.3 mm 2 mps 732 mmHg 97%
    05:00 -1°C° 0.3 mm 2 mps 731 mmHg 98%
    06:00 +1°C° 0.3 mm 2 mps 731 mmHg 98%
    07:00 +1°C° 0.3 mm 2 mps 731 mmHg 97%
    08:00 +1°C° 0.3 mm 3 mps 731 mmHg 97%
    09:00 +1°C° 0.1 mm 3 mps 731 mmHg 96%
    10:00 +1°C° 0.1 mm 3 mps 731 mmHg 96%
    11:00 +2°C° 0.1 mm 3 mps 731 mmHg 95%
    12:00 +2°C° 0.1 mm 3 mps 731 mmHg 95%
    13:00 +2°C° 0.1 mm 3 mps 731 mmHg 95%
    14:00 +2°C° 0.1 mm 3 mps 731 mmHg 95%
    15:00 +2°C° 0.1 mm 3 mps 732 mmHg 95%
    16:00 +1°C° 0.1 mm 3 mps 732 mmHg 95%
    17:00 +1°C° 0.1 mm 3 mps 732 mmHg 95%
    18:00 +1°C° 0.1 mm 3 mps 733 mmHg 95%
    19:00 +1°C° 0.1 mm 3 mps 733 mmHg 95%
    20:00 +2°C° 0.1 mm 2 mps 733 mmHg 95%
    21:00 0°C° 0 mm 3 mps 733 mmHg 95%
    22:00 0°C° 0 mm 3 mps 734 mmHg 95%
    23:00 0°C° 0 mm 3 mps 734 mmHg 95%
    Show more